| time (UTC) | temp F | wind direction | speed MPH | gust MPH | rain 1hr in | rain 24hr in | rain mn in | humidity % | barometer mb |
| 20260510201547 | 90 | 105 | 4.0 | 9.0 | 0.00 | 0.00 | 0.00 | 1 | 1018.4 |
| 20260510201051 | 91 | 271 | 5.0 | 10.0 | 0.00 | 0.00 | 0.00 | 1 | 1018.5 |
| 20260510200042 | 90 | 113 | 3.0 | 9.0 | 0.00 | 0.00 | 0.00 | 1 | 1018.6 |
| 20260510195540 | 90 | 12 | 3.0 | 10.0 | 0.00 | 0.00 | 0.00 | 1 | 1018.5 |
| 20260510195039 | 90 | 44 | 3.0 | 10.0 | 0.00 | 0.00 | 0.00 | 1 | 1018.5 |
| 20260510194542 | 90 | 322 | 3.0 | 9.0 | 0.00 | 0.00 | 0.00 | 1 | 1018.5 |
| 20260510194039 | 90 | 94 | 3.0 | 8.0 | 0.00 | 0.00 | 0.00 | 1 | 1018.5 |
| 20260510193536 | 90 | 167 | 3.0 | 9.0 | 0.00 | 0.00 | 0.00 | 1 | 1018.6 |
| 20260510193036 | 91 | 54 | 3.0 | 9.0 | 0.00 | 0.00 | 0.00 | 1 | 1018.8 |
| 20260510192037 | 89 | 350 | 4.0 | 10.0 | 0.00 | 0.00 | 0.00 | 1 | 1018.9 |
| 20260510191539 | 89 | 56 | 4.0 | 9.0 | 0.00 | 0.00 | 0.00 | 1 | 1018.9 |
| 20260510191034 | 89 | 84 | 4.0 | 9.0 | 0.00 | 0.00 | 0.00 | 1 | 1018.9 |
| 20260510190533 | 89 | 103 | 4.0 | 9.0 | 0.00 | 0.00 | 0.00 | 1 | 1018.9 |
| 20260510190034 | 89 | 30 | 4.0 | 10.0 | 0.00 | 0.00 | 0.00 | 1 | 1018.9 |
| 20260510185035 | 89 | 11 | 4.0 | 9.0 | 0.00 | 0.00 | 0.00 | 1 | 1018.9 |
| 20260510184031 | 89 | 299 | 4.0 | 9.0 | 0.00 | 0.00 | 0.00 | 1 | 1019.0 |
| 20260510183532 | 89 | 309 | 4.0 | 8.0 | 0.00 | 0.00 | 0.00 | 1 | 1019.0 |
| 20260510183026 | 88 | 71 | 4.0 | 7.0 | 0.00 | 0.00 | 0.00 | 1 | 1019.0 |
| 20260510182027 | 88 | 34 | 4.0 | 7.0 | 0.00 | 0.00 | 0.00 | 1 | 1019.0 |
| 20260510181525 | 89 | 85 | 3.0 | 7.0 | 0.00 | 0.00 | 0.00 | 1 | 1019.0 |
| 20260510181025 | 87 | 45 | 3.0 | 8.0 | 0.00 | 0.00 | 0.00 | 1 | 1019.1 |
| 20260510180525 | 87 | 79 | 3.0 | 8.0 | 0.00 | 0.00 | 0.00 | 1 | 1019.1 |
| 20260510180026 | 87 | 319 | 4.0 | 8.0 | 0.00 | 0.00 | 0.00 | 1 | 1019.1 |
| 20260510175523 | 87 | 14 | 5.0 | 10.0 | 0.00 | 0.00 | 0.00 | 1 | 1019.1 |
| 20260510175027 | 88 | 72 | 4.0 | 12.0 | 0.00 | 0.00 | 0.00 | 1 | 1019.1 |
| 20260510174527 | 87 | 4 | 2.0 | 12.0 | 0.00 | 0.00 | 0.00 | 1 | 1019.0 |
| 20260510174022 | 87 | 46 | 1.0 | 6.0 | 0.00 | 0.00 | 0.00 | 1 | 1019.1 |
| 20260510173011 | 87 | 134 | 4.0 | 9.0 | 0.00 | 0.00 | 0.00 | 1 | 1019.0 |
| 20260510172504 | 87 | 93 | 4.0 | 9.0 | 0.00 | 0.00 | 0.00 | 1 | 1019.0 |
| 20260510171451 | 86 | 90 | 3.0 | 11.0 | 0.00 | 0.00 | 0.00 | 1 | 1019.0 |
| 20260510170948 | 85 | 45 | 3.0 | 11.0 | 0.00 | 0.00 | 0.00 | 1 | 1019.1 |
| 20260510170440 | 85 | 110 | 4.0 | 11.0 | 0.00 | 0.00 | 0.00 | 1 | 1019.0 |
| 20260510165934 | 85 | 49 | 3.0 | 9.0 | 0.00 | 0.00 | 0.00 | 1 | 1019.1 |
| 20260510165431 | 84 | 60 | 3.0 | 9.0 | 0.00 | 0.00 | 0.00 | 1 | 1019.1 |
| 20260510164925 | 84 | 206 | 4.0 | 9.0 | 0.00 | 0.00 | 0.00 | 1 | 1019.0 |
| 20260510163407 | 83 | 67 | 4.0 | 8.0 | 0.00 | 0.00 | 0.00 | 1 | 1019.0 |
| 20260510162858 | 83 | 20 | 4.0 | 8.0 | 0.00 | 0.00 | 0.00 | 1 | 1019.0 |
| 20260510162352 | 83 | 23 | 5.0 | 9.0 | 0.00 | 0.00 | 0.00 | 1 | 1019.0 |
| 20260510161845 | 82 | 24 | 4.0 | 10.0 | 0.00 | 0.00 | 0.00 | 1 | 1019.1 |
| 20260510154303 | 79 | 37 | 4.0 | 9.0 | 0.00 | 0.00 | 0.00 | 1 | 1019.1 |
| 20260510153802 | 79 | 77 | 3.0 | 9.0 | 0.00 | 0.00 | 0.00 | 1 | 1019.0 |
| 20260510153252 | 79 | 21 | 3.0 | 8.0 | 0.00 | 0.00 | 0.00 | 1 | 1019.1 |
| 20260510152745 | 78 | 15 | 3.0 | 8.0 | 0.00 | 0.00 | 0.00 | 1 | 1019.1 |
| 20260510151733 | 78 | 57 | 3.0 | 7.0 | 0.00 | 0.00 | 0.00 | 1 | 1019.1 |
| 20260510151226 | 78 | 27 | 3.0 | 8.0 | 0.00 | 0.00 | 0.00 | 1 | 1019.1 |
| 20260510150721 | 77 | 108 | 4.0 | 8.0 | 0.00 | 0.00 | 0.00 | 1 | 1019.1 |
| 20260510145204 | 77 | 93 | 2.0 | 6.0 | 0.00 | 0.00 | 0.00 | 1 | 1018.9 |
| 20260510144701 | 77 | 82 | 2.0 | 6.0 | 0.00 | 0.00 | 0.00 | 1 | 1018.9 |
| 20260510144151 | 76 | 106 | 2.0 | 6.0 | 0.00 | 0.00 | 0.00 | 2 | 1018.9 |
| 20260510143649 | 76 | 86 | 2.0 | 7.0 | 0.00 | 0.00 | 0.00 | 2 | 1018.8 |
| 20260510143139 | 75 | 10 | 2.0 | 7.0 | 0.00 | 0.00 | 0.00 | 2 | 1018.8 |
| 20260510142638 | 75 | 96 | 2.0 | 6.0 | 0.00 | 0.00 | 0.00 | 3 | 1018.8 |
| 20260510142127 | 75 | 25 | 2.0 | 5.0 | 0.00 | 0.00 | 0.00 | 3 | 1018.8 |
| 20260510141621 | 75 | 279 | 2.0 | 5.0 | 0.00 | 0.00 | 0.00 | 4 | 1018.6 |
| 20260510141114 | 75 | 79 | 1.0 | 4.0 | 0.00 | 0.00 | 0.00 | 4 | 1018.5 |
| 20260510135557 | 73 | 104 | 2.0 | 5.0 | 0.00 | 0.00 | 0.00 | 6 | 1018.5 |
| 20260510135053 | 73 | 89 | 2.0 | 5.0 | 0.00 | 0.00 | 0.00 | 6 | 1018.4 |
| 20260510134547 | 72 | 102 | 2.0 | 6.0 | 0.00 | 0.00 | 0.00 | 6 | 1018.4 |
| 20260510134044 | 72 | 75 | 1.0 | 6.0 | 0.00 | 0.00 | 0.00 | 7 | 1018.4 |
| 20260510133043 | 71 | 88 | 1.0 | 4.0 | 0.00 | 0.00 | 0.00 | 7 | 1018.2 |
| 20260510132547 | 71 | 122 | 2.0 | 5.0 | 0.00 | 0.00 | 0.00 | 7 | 1018.2 |
| 20260510132045 | 70 | 177 | 2.0 | 5.0 | 0.00 | 0.00 | 0.00 | 8 | 1018.1 |
| 20260510131546 | 69 | 198 | 1.0 | 4.0 | 0.00 | 0.00 | 0.00 | 9 | 1018.0 |
| 20260510131046 | 68 | 214 | 2.0 | 4.0 | 0.00 | 0.00 | 0.00 | 9 | 1017.8 |
| 20260510130544 | 67 | 186 | 2.0 | 4.0 | 0.00 | 0.00 | 0.00 | 9 | 1017.7 |
| 20260510130047 | 65 | 175 | 1.0 | 2.0 | 0.00 | 0.00 | 0.00 | 11 | 1017.7 |
| 20260510125546 | 65 | 194 | 1.0 | 2.0 | 0.00 | 0.00 | 0.00 | 11 | 1017.7 |
| 20260510125045 | 64 | 169 | 1.0 | 2.0 | 0.00 | 0.00 | 0.00 | 11 | 1017.6 |
| 20260510124542 | 64 | 197 | 1.0 | 2.0 | 0.00 | 0.00 | 0.00 | 11 | 1017.6 |
| 20260510123543 | 67 | 106 | 2.0 | 4.0 | 0.00 | 0.00 | 0.00 | 10 | 1017.4 |
| 20260510123039 | 67 | 107 | 3.0 | 5.0 | 0.00 | 0.00 | 0.00 | 10 | 1017.3 |
| 20260510122541 | 67 | 172 | 4.0 | 5.0 | 0.00 | 0.00 | 0.00 | 10 | 1017.2 |
| 20260510122040 | 67 | 168 | 4.0 | 6.0 | 0.00 | 0.00 | 0.00 | 10 | 1017.0 |
| 20260510121540 | 66 | 181 | 3.0 | 6.0 | 0.00 | 0.00 | 0.00 | 11 | 1017.0 |
| 20260510121041 | 65 | 180 | 2.0 | 5.0 | 0.00 | 0.00 | 0.00 | 11 | 1017.0 |
| 20260510120039 | 65 | 181 | 2.0 | 5.0 | 0.00 | 0.00 | 0.00 | 10 | 1017.0 |
| 20260510115540 | 65 | 196 | 3.0 | 6.0 | 0.00 | 0.00 | 0.00 | 10 | 1017.0 |
| 20260510115041 | 65 | 176 | 2.0 | 6.0 | 0.00 | 0.00 | 0.00 | 10 | 1017.0 |
| 20260510114536 | 65 | 198 | 2.0 | 3.0 | 0.00 | 0.00 | 0.00 | 10 | 1017.3 |
| 20260510114037 | 66 | 218 | 3.0 | 7.0 | 0.00 | 0.00 | 0.00 | 10 | 1017.3 |
| 20260510113536 | 66 | 207 | 2.0 | 7.0 | 0.00 | 0.00 | 0.00 | 10 | 1017.3 |
| 20260510113036 | 65 | 194 | 1.0 | 6.0 | 0.00 | 0.00 | 0.00 | 10 | 1017.3 |
| 20260510112036 | 67 | 173 | 1.0 | 3.0 | 0.00 | 0.00 | 0.00 | 10 | 1017.0 |
| 20260510111536 | 68 | 250 | 0.0 | 3.0 | 0.00 | 0.00 | 0.00 | 9 | 1016.9 |
| 20260510111035 | 68 | 142 | 0.0 | 3.0 | 0.00 | 0.00 | 0.00 | 9 | 1016.8 |
| 20260510110538 | 69 | 173 | 1.0 | 4.0 | 0.00 | 0.00 | 0.00 | 9 | 1016.7 |
| 20260510110036 | 69 | 160 | 3.0 | 7.0 | 0.00 | 0.00 | 0.00 | 9 | 1016.7 |
| 20260510105538 | 69 | 176 | 4.0 | 7.0 | 0.00 | 0.00 | 0.00 | 9 | 1016.6 |
| 20260510105037 | 70 | 186 | 3.0 | 7.0 | 0.00 | 0.00 | 0.00 | 9 | 1016.6 |
| 20260510104535 | 70 | 205 | 1.0 | 6.0 | 0.00 | 0.00 | 0.00 | 9 | 1016.5 |
| 20260510104036 | 69 | 161 | 0.0 | 4.0 | 0.00 | 0.00 | 0.00 | 9 | 1016.6 |
| 20260510103540 | 69 | 193 | 1.0 | 3.0 | 0.00 | 0.00 | 0.00 | 9 | 1016.5 |
| 20260510102034 | 72 | 122 | 1.0 | 4.0 | 0.00 | 0.00 | 0.00 | 7 | 1016.4 |
| 20260510101528 | 73 | 162 | 3.0 | 7.0 | 0.00 | 0.00 | 0.00 | 7 | 1016.4 |
| 20260510101023 | 73 | 179 | 3.0 | 7.0 | 0.00 | 0.00 | 0.00 | 8 | 1016.4 |
| 20260510100010 | 72 | 156 | 3.0 | 5.0 | 0.00 | 0.00 | 0.00 | 8 | 1016.5 |
| 20260510095507 | 71 | 181 | 2.0 | 3.0 | 0.00 | 0.00 | 0.00 | 8 | 1016.4 |
| 20260510094959 | 71 | 198 | 2.0 | 4.0 | 0.00 | 0.00 | 0.00 | 8 | 1016.5 |
| 20260510093443 | 72 | 172 | 2.0 | 5.0 | 0.00 | 0.00 | 0.00 | 8 | 1016.5 |
| 20260510091925 | 70 | 189 | 2.0 | 3.0 | 0.00 | 0.00 | 0.00 | 9 | 1016.4 |
| 20260510091416 | 70 | 152 | 0.0 | 3.0 | 0.00 | 0.00 | 0.00 | 8 | 1016.4 |
| 20260510090911 | 70 | 133 | 0.0 | 3.0 | 0.00 | 0.00 | 0.00 | 8 | 1016.4 |
| 20260510090406 | 71 | 117 | 0.0 | 2.0 | 0.00 | 0.00 | 0.00 | 7 | 1016.2 |
| 20260510085900 | 72 | 180 | 0.0 | 2.0 | 0.00 | 0.00 | 0.00 | 7 | 1016.2 |
| 20260510085353 | 73 | 157 | 1.0 | 5.0 | 0.00 | 0.00 | 0.00 | 7 | 1016.1 |
| 20260510084847 | 73 | 157 | 2.0 | 5.0 | 0.00 | 0.00 | 0.00 | 6 | 1016.1 |
| 20260510083834 | 73 | 190 | 3.0 | 8.0 | 0.00 | 0.00 | 0.00 | 6 | 1016.1 |
| 20260510083328 | 73 | 151 | 2.0 | 8.0 | 0.00 | 0.00 | 0.00 | 6 | 1016.0 |
| 20260510082822 | 73 | 184 | 2.0 | 4.0 | 0.00 | 0.00 | 0.00 | 6 | 1016.1 |
| 20260510081811 | 75 | 179 | 2.0 | 5.0 | 0.00 | 0.00 | 0.00 | 4 | 1016.0 |
| 20260510081305 | 76 | 153 | 1.0 | 5.0 | 0.00 | 0.00 | 0.00 | 3 | 1016.1 |
| 20260510080758 | 76 | 238 | 1.0 | 5.0 | 0.00 | 0.00 | 0.00 | 3 | 1016.0 |
| 20260510080252 | 76 | 219 | 2.0 | 6.0 | 0.00 | 0.00 | 0.00 | 3 | 1016.1 |
| 20260510075241 | 77 | 214 | 2.0 | 10.0 | 0.00 | 0.00 | 0.00 | 3 | 1016.0 |
| 20260510074733 | 77 | 212 | 1.0 | 6.0 | 0.00 | 0.00 | 0.00 | 3 | 1016.0 |
| 20260510074226 | 77 | 201 | 2.0 | 12.0 | 0.00 | 0.00 | 0.00 | 3 | 1016.0 |
| 20260510073721 | 78 | 252 | 3.0 | 12.0 | 0.00 | 0.00 | 0.00 | 3 | 1016.1 |
| 20260510073217 | 77 | 269 | 4.0 | 12.0 | 0.00 | 0.00 | 0.00 | 3 | 1016.0 |
| 20260510072711 | 77 | 239 | 4.0 | 12.0 | 0.00 | 0.00 | 0.00 | 4 | 1016.0 |
| 20260510072207 | 77 | 191 | 3.0 | 10.0 | 0.00 | 0.00 | 0.00 | 4 | 1015.9 |
| 20260510071656 | 78 | 146 | 4.0 | 14.0 | 0.00 | 0.00 | 0.00 | 4 | 1016.0 |
| 20260510071151 | 78 | 150 | 4.0 | 14.0 | 0.00 | 0.00 | 0.00 | 4 | 1015.9 |
| 20260510070644 | 78 | 92 | 5.0 | 14.0 | 0.00 | 0.00 | 0.00 | 4 | 1016.0 |
| 20260510070139 | 78 | 203 | 5.0 | 14.0 | 0.00 | 0.00 | 0.00 | 5 | 1015.9 |
| 20260510065632 | 78 | 224 | 4.0 | 9.0 | 0.00 | 0.00 | 0.00 | 5 | 1015.9 |
| 20260510065127 | 78 | 233 | 5.0 | 12.0 | 0.00 | 0.00 | 0.00 | 5 | 1015.9 |
| 20260510064116 | 78 | 199 | 5.0 | 13.0 | 0.00 | 0.00 | 0.00 | 5 | 1015.8 |
| 20260510063103 | 78 | 201 | 5.0 | 10.0 | 0.00 | 0.00 | 0.00 | 5 | 1015.9 |
| 20260510062557 | 78 | 209 | 4.0 | 10.0 | 0.00 | 0.00 | 0.00 | 5 | 1015.9 |
| 20260510062051 | 78 | 201 | 4.0 | 11.0 | 0.00 | 0.00 | 0.00 | 5 | 1015.9 |
| 20260510061545 | 78 | 159 | 4.0 | 11.0 | 0.00 | 0.00 | 0.00 | 5 | 1015.9 |
| 20260510061038 | 78 | 170 | 4.0 | 10.0 | 0.00 | 0.00 | 0.00 | 5 | 1015.8 |
| 20260510060533 | 78 | 204 | 3.0 | 9.0 | 0.00 | 0.00 | 0.00 | 5 | 1015.8 |
| 20260510060028 | 78 | 230 | 4.0 | 9.0 | 0.00 | 0.00 | 0.00 | 5 | 1015.8 |
| 20260510055017 | 77 | 208 | 3.0 | 10.0 | 0.00 | 0.00 | 0.00 | 6 | 1015.9 |
| 20260510054508 | 77 | 214 | 4.0 | 9.0 | 0.00 | 0.00 | 0.00 | 6 | 1015.9 |
| 20260510054003 | 77 | 272 | 3.0 | 10.0 | 0.00 | 0.00 | 0.00 | 6 | 1015.9 |
| 20260510053457 | 77 | 252 | 3.0 | 10.0 | 0.00 | 0.00 | 0.00 | 5 | 1016.0 |
| 20260510052950 | 77 | 120 | 3.0 | 9.0 | 0.00 | 0.00 | 0.00 | 5 | 1016.0 |
| 20260510052447 | 77 | 170 | 2.0 | 9.0 | 0.00 | 0.00 | 0.00 | 5 | 1016.0 |
| 20260510051939 | 77 | 262 | 2.0 | 7.0 | 0.00 | 0.00 | 0.00 | 5 | 1016.0 |
| 20260510051435 | 78 | 244 | 2.0 | 7.0 | 0.00 | 0.00 | 0.00 | 5 | 1015.9 |
| 20260510050927 | 78 | 206 | 2.0 | 7.0 | 0.00 | 0.00 | 0.00 | 4 | 1015.9 |
| 20260510050420 | 78 | 249 | 3.0 | 7.0 | 0.00 | 0.00 | 0.00 | 4 | 1015.9 |
| 20260510045914 | 78 | 230 | 3.0 | 8.0 | 0.00 | 0.00 | 0.00 | 2 | 1015.9 |
| 20260510045409 | 78 | 217 | 4.0 | 7.0 | 0.00 | 0.00 | 0.00 | 2 | 1015.8 |
| 20260510044903 | 79 | 179 | 4.0 | 8.0 | 0.00 | 0.00 | 0.00 | 2 | 1015.8 |
| 20260510044357 | 79 | 212 | 5.0 | 8.0 | 0.00 | 0.00 | 0.00 | 2 | 1015.8 |
| 20260510043347 | 79 | 233 | 5.0 | 8.0 | 0.00 | 0.00 | 0.00 | 1 | 1015.8 |
| 20260510042841 | 79 | 250 | 5.0 | 8.0 | 0.00 | 0.00 | 0.00 | 1 | 1015.8 |
| 20260510042333 | 78 | 241 | 4.0 | 8.0 | 0.00 | 0.00 | 0.00 | 2 | 1015.7 |
| 20260510041826 | 78 | 214 | 4.0 | 8.0 | 0.00 | 0.00 | 0.00 | 2 | 1015.7 |
| 20260510041321 | 79 | 224 | 4.0 | 9.0 | 0.00 | 0.00 | 0.00 | 2 | 1015.6 |
| 20260510040310 | 79 | 235 | 3.0 | 8.0 | 0.00 | 0.00 | 0.00 | 1 | 1015.6 |
| 20260510035805 | 79 | 242 | 2.0 | 4.0 | 0.00 | 0.00 | 0.00 | 1 | 1015.4 |
| 20260510035256 | 79 | 244 | 1.0 | 4.0 | 0.00 | 0.00 | 0.00 | 1 | 1015.3 |
| 20260510034247 | 78 | 284 | 1.0 | 4.0 | 0.00 | 0.00 | 0.00 | 2 | 1015.3 |
| 20260510033738 | 79 | 198 | 2.0 | 6.0 | 0.00 | 0.00 | 0.00 | 2 | 1015.2 |
| 20260510032733 | 78 | 252 | 2.0 | 6.0 | 0.00 | 0.00 | 0.00 | 2 | 1015.1 |
| 20260510032233 | 78 | 231 | 2.0 | 6.0 | 0.00 | 0.00 | 0.00 | 2 | 1015.0 |
| 20260510031737 | 79 | 181 | 2.0 | 5.0 | 0.00 | 0.00 | 0.00 | 2 | 1015.0 |
| 20260510031231 | 78 | 220 | 2.0 | 4.0 | 0.00 | 0.00 | 0.00 | 2 | 1015.0 |
| 20260510030731 | 78 | 190 | 2.0 | 4.0 | 0.00 | 0.00 | 0.00 | 3 | 1014.9 |
| 20260510030232 | 78 | 224 | 1.0 | 3.0 | 0.00 | 0.00 | 0.00 | 3 | 1014.9 |
| 20260510025729 | 79 | 238 | 1.0 | 4.0 | 0.00 | 0.00 | 0.00 | 3 | 1014.8 |
| 20260510025229 | 80 | 219 | 1.0 | 4.0 | 0.00 | 0.00 | 0.00 | 3 | 1014.6 |
| 20260510024730 | 80 | 248 | 1.0 | 5.0 | 0.00 | 0.00 | 0.00 | 3 | 1014.5 |
| 20260510024229 | 81 | 297 | 2.0 | 5.0 | 0.00 | 0.00 | 0.00 | 3 | 1014.5 |
| 20260510023230 | 82 | 297 | 2.0 | 9.0 | 0.00 | 0.00 | 0.00 | 2 | 1014.5 |
| 20260510022731 | 82 | 251 | 2.0 | 9.0 | 0.00 | 0.00 | 0.00 | 2 | 1014.4 |
| 20260510022230 | 82 | 285 | 1.0 | 5.0 | 0.00 | 0.00 | 0.00 | 3 | 1014.3 |
| 20260510021726 | 82 | 239 | 1.0 | 4.0 | 0.00 | 0.00 | 0.00 | 2 | 1014.3 |
| 20260510021227 | 82 | 278 | 1.0 | 4.0 | 0.00 | 0.00 | 0.00 | 2 | 1014.3 |
| 20260510020725 | 83 | 204 | 1.0 | 4.0 | 0.00 | 0.00 | 0.00 | 2 | 1014.3 |
| 20260510020227 | 83 | 228 | 2.0 | 5.0 | 0.00 | 0.00 | 0.00 | 2 | 1014.3 |
| 20260510015223 | 85 | 231 | 2.0 | 6.0 | 0.00 | 0.00 | 0.00 | 1 | 1014.2 |
| 20260510014724 | 86 | 292 | 2.0 | 6.0 | 0.00 | 0.00 | 0.00 | 1 | 1014.2 |
| 20260510014223 | 87 | 245 | 2.0 | 6.0 | 0.00 | 0.00 | 0.00 | 1 | 1014.2 |
| 20260510012221 | 88 | 279 | 3.0 | 10.0 | 0.00 | 0.00 | 0.00 | 1 | 1014.0 |
| 20260510011719 | 87 | 278 | 4.0 | 12.0 | 0.00 | 0.00 | 0.00 | 1 | 1014.1 |
| 20260510011223 | 88 | 340 | 3.0 | 12.0 | 0.00 | 0.00 | 0.00 | 1 | 1014.1 |
| 20260510010719 | 88 | 255 | 3.0 | 11.0 | 0.00 | 0.00 | 0.00 | 1 | 1014.0 |
| 20260510010221 | 89 | 286 | 3.0 | 11.0 | 0.00 | 0.00 | 0.00 | 1 | 1014.1 |
| 20260510005719 | 89 | 275 | 2.0 | 6.0 | 0.00 | 0.00 | 0.00 | 1 | 1014.1 |
| 20260510005223 | 89 | 293 | 2.0 | 8.0 | 0.00 | 0.00 | 0.00 | 1 | 1014.1 |
| 20260510004719 | 89 | 321 | 3.0 | 9.0 | 0.00 | 0.00 | 0.00 | 1 | 1014.1 |
| 20260510004219 | 89 | 219 | 3.0 | 9.0 | 0.00 | 0.00 | 0.00 | 1 | 1014.1 |
| 20260510003719 | 89 | 179 | 4.0 | 8.0 | 0.00 | 0.00 | 0.00 | 1 | 1014.0 |
| 20260510003219 | 89 | 188 | 4.0 | 10.0 | 0.00 | 0.00 | 0.00 | 1 | 1014.0 |
| 20260510002719 | 89 | 294 | 4.0 | 10.0 | 0.00 | 0.00 | 0.00 | 1 | 1014.0 |
| 20260510001721 | 90 | 136 | 3.0 | 13.0 | 0.00 | 0.00 | 0.00 | 1 | 1014.0 |
| 20260510000719 | 90 | 211 | 5.0 | 13.0 | 0.00 | 0.00 | 0.00 | 1 | 1014.0 |
| 20260510000221 | 89 | 238 | 5.0 | 13.0 | 0.00 | 0.00 | 0.00 | 1 | 1013.8 |
| 20260509235719 | 89 | 260 | 6.0 | 13.0 | 0.00 | 0.00 | 0.00 | 1 | 1014.0 |
| 20260509235219 | 89 | 200 | 5.0 | 15.0 | 0.00 | 0.00 | 0.00 | 1 | 1014.1 |
| 20260509234718 | 89 | 254 | 3.0 | 15.0 | 0.00 | 0.00 | 0.00 | 1 | 1014.1 |
| 20260509234214 | 90 | 290 | 4.0 | 11.0 | 0.00 | 0.00 | 0.00 | 1 | 1014.2 |
| 20260509233714 | 90 | 293 | 4.0 | 11.0 | 0.00 | 0.00 | 0.00 | 1 | 1014.3 |
| 20260509233214 | 90 | 273 | 3.0 | 10.0 | 0.00 | 0.00 | 0.00 | 1 | 1014.2 |
| 20260509232714 | 90 | 204 | 4.0 | 15.0 | 0.00 | 0.00 | 0.00 | 1 | 1014.1 |
| 20260509232212 | 90 | 282 | 5.0 | 15.0 | 0.00 | 0.00 | 0.00 | 1 | 1014.2 |
| 20260509231713 | 90 | 231 | 5.0 | 14.0 | 0.00 | 0.00 | 0.00 | 1 | 1014.2 |
| 20260509231210 | 91 | 195 | 4.0 | 14.0 | 0.00 | 0.00 | 0.00 | 1 | 1014.2 |
| 20260509230710 | 90 | 262 | 5.0 | 18.0 | 0.00 | 0.00 | 0.00 | 1 | 1014.2 |
| 20260509230203 | 89 | 150 | 6.0 | 18.0 | 0.00 | 0.00 | 0.00 | 1 | 1014.2 |
| 20260509225657 | 90 | 213 | 5.0 | 12.0 | 0.00 | 0.00 | 0.00 | 1 | 1014.2 |
| 20260509225151 | 90 | 203 | 6.0 | 17.0 | 0.00 | 0.00 | 0.00 | 1 | 1014.1 |
| 20260509224646 | 90 | 141 | 7.0 | 19.0 | 0.00 | 0.00 | 0.00 | 1 | 1014.3 |
| 20260509224141 | 89 | 143 | 6.0 | 19.0 | 0.00 | 0.00 | 0.00 | 1 | 1014.2 |
| 20260509223634 | 89 | 265 | 5.0 | 13.0 | 0.00 | 0.00 | 0.00 | 1 | 1014.2 |
| 20260509223127 | 89 | 288 | 4.0 | 15.0 | 0.00 | 0.00 | 0.00 | 1 | 1014.3 |
| 20260509222622 | 90 | 274 | 5.0 | 15.0 | 0.00 | 0.00 | 0.00 | 1 | 1014.4 |
| 20260509222116 | 89 | 293 | 5.0 | 13.0 | 0.00 | 0.00 | 0.00 | 1 | 1014.5 |
| 20260509220616 | 89 | 305 | 6.0 | 23.0 | 0.00 | 0.00 | 0.00 | 1 | 1014.6 |
| 20260509220112 | 90 | 196 | 7.0 | 23.0 | 0.00 | 0.00 | 0.00 | 1 | 1014.8 |
| 20260509215114 | 90 | 301 | 4.0 | 13.0 | 0.00 | 0.00 | 0.00 | 1 | 1014.9 |
| 20260509214614 | 90 | 290 | 2.0 | 8.0 | 0.00 | 0.00 | 0.00 | 1 | 1014.9 |
| 20260509213610 | 89 | 229 | 5.0 | 11.0 | 0.00 | 0.00 | 0.00 | 1 | 1015.2 |
| 20260509213114 | 89 | 252 | 6.0 | 14.0 | 0.00 | 0.00 | 0.00 | 1 | 1015.1 |
| 20260509212611 | 89 | 267 | 5.0 | 14.0 | 0.00 | 0.00 | 0.00 | 1 | 1015.2 |
| 20260509212111 | 91 | 246 | 4.0 | 15.0 | 0.00 | 0.00 | 0.00 | 1 | 1015.2 |
| 20260509211611 | 89 | 324 | 5.0 | 15.0 | 0.00 | 0.00 | 0.00 | 1 | 1015.1 |
| 20260509211110 | 90 | 306 | 5.0 | 14.0 | 0.00 | 0.00 | 0.00 | 1 | 1015.2 |
| 20260509210114 | 89 | 225 | 6.0 | 14.0 | 0.00 | 0.00 | 0.00 | 1 | 1015.3 |
| 20260509205608 | 89 | 281 | 7.0 | 15.0 | 0.00 | 0.00 | 0.00 | 1 | 1015.4 |
| 20260509205100 | 89 | 300 | 6.0 | 15.0 | 0.00 | 0.00 | 0.00 | 1 | 1015.3 |
| 20260509204556 | 89 | 281 | 5.0 | 13.0 | 0.00 | 0.00 | 0.00 | 1 | 1015.4 |
| 20260509204047 | 89 | 299 | 6.0 | 15.0 | 0.00 | 0.00 | 0.00 | 1 | 1015.6 |
| 20260509203542 | 89 | 346 | 6.0 | 15.0 | 0.00 | 0.00 | 0.00 | 1 | 1015.7 |
| 20260509202530 | 89 | 196 | 5.0 | 15.0 | 0.00 | 0.00 | 0.00 | 1 | 1015.6 |
| 20260509202024 | 89 | 305 | 5.0 | 15.0 | 0.00 | 0.00 | 0.00 | 1 | 1015.7 |